Location: Glenbow
(51.1592°N, 114.3828°W)
Time: 20:35:32
(UTC+00:00)

Envisat - Pass Details

Date: 03 December 2021
Orbit: 764 x 766 km, 98.2° (Epoch: 26 January)

Event Time Altitude Azimuth Distance (km) Brightness Sun altitude
Rises 12:47:55 0° 14° (NNE) 3,248 6.3 -23.2°
Reaches altitude 10° 12:50:14 10° 16° (NNE) 2,317 5.6 -22.8°
Maximum altitude 12:55:22 83° 104° (ESE) 779 3.0 -22.0°
Drops below altitude 10° 13:00:27 10° 193° (SSW) 2,298 5.4 -21.2°
Sets 13:02:44 0° 194° (SSW) 3,220 6.2 -20.9°
